Showing default

QIANFAN-112, 68639

Orbit data source: Space-Track

QIANFAN-112, 68639 is a Chinese payload satellite in LEO that was launched on Tue, 07 Apr 2026 UTC via a CHANG ZHENG 8 launch vehicle from the Wenchang Satellite Launch Center (WSC). Payload-class satellites include a variety of spacecraft equipped with specific instruments for various scientific and technological missions. These include communications satellites like Starlink; space stations such as the ISS; scientific satellites like the Hubble; Earth observation satellites from companies like Planet Labs, Umbra, and HawkEye 360; GPS; miniature CubeSats for education and research; and military/defense satellites.

Loading next visibility...
Identifier
68639, 2026-075D
Orbit
LEO
Country
Flag of CNCN / PRC
Related business
Manufacturer
SECM
Mission
Operational spacecraft
Bus & Motor
QIANFAN, Unknown motor
Mass
267 kg wet, ~267 kg dry
Launch date (UTC)
2026-04-07 (2 months ago)
Launch vehicle
CHANG ZHENG 8
Launch site
Wenchang Satellite Launch Center (WSC)
Object type
Payload
Rocket body
Debris
Shape & HBR
Unknown shape, 14.5 m
Radar Cross Section
Large (>1 m²)

Expand to show TLE details & history
Last TLE update: 10 hours ago

TLE from 10 hours ago
0 QIANFAN-112
1 68639U 26075D   26171.43482132  .00000079  00000-0  10326-3 0  9997
2 68639  88.9893 320.6694 0001522  97.8012 262.3312 13.51023868 10249
Epoch: 2026-06-20T10:26Z
TLE epoch observation values (Epoch: 2026-06-20T10:26:08.562Z)
Latitude
Longitude
-104.51577°
Altitude
1,071.599 km
Speed
7.316 km/s
True Right ascension
21h 22m 40s
True Declination
0° 00' 00"
Sunlit
Object was in full shadow at epoch
Visualization orbit readout
Latitude
Unknown
Longitude
Unknown
Altitude
Unknown
Speed
Unknown
Apparent Right ascension
Unknown
Apparent Declination
Unknown
Sunlit
N/A
Visualization observer readout
Local Sidereal Time
07:14:17
Azimuth
Unknown
Elevation
Unknown
Doppler factor
Unknown
Orbital elements
Apogee altitude
1,066.678 km
Perigee altitude
1,064.412 km
Semi-major axis
7,443.682 km
Eccentricity
0.00015
Inclination
88.9893°
RAAN
320.6694°
Arg. of periapsis
97.8012°
True anomaly
262.31392°
Mean anomaly
262.3312°
Eccentric anomaly
262.32256°
Mean motion
3.37957 °/min
Orbital period
106.52 mins
BSTAR
0.00010326
Loading maneuver chart data...
Computing Atmospheric mass density...
Loading historical data...
Loading historical data...
Loading historical data...
Loading historical data...
Loading historical data...
Loading historical data...
Loading historical data...

Documentation

Showing up to 5 results
|